Weather History for St. Joseph, MO

Change the Weather History Date:

Friday, February 22, 2013

  Actual Average Record
Temperature  
Mean Temperature 18 °F 34 °F  
Max Temperature 25 °F 44 °F 70 °F (1982)
Min Temperature 10 °F 23 °F -7 °F (1978)
Degree Days  
Heating Degree Days 47 31  
Month to date heating degree days 724 745  
Since 1 July heating degree days 3885 4128  
Cooling Degree Days 0 0  
Month to date cooling degree days 0 0  
Year to date cooling degree days 0 0  
Moisture  
Dew Point 16 °F    
Average Humidity 75    
Maximum Humidity 88    
Minimum Humidity 62    
Precipitation  
Precipitation T in 0.04 in 1.39 in (1922)
Month to date precipitation 0.37 0.70  
Year to date precipitation 1.01 1.26  
Sea Level Pressure  
Sea Level Pressure 29.97 in    
Wind  
Wind Speed 9 mph (West)    
Max Wind Speed 17 mph    
Max Gust Speed 22 mph    
Visibility 9 miles    
Events Snow    
T = Trace of Precipitation, MM = Missing Value Source: NWS Daily Summary

Daily Weather History Graph

Daily Weather History Graph

Search for Another Location

Airport:

Trip Planner

Search our weather history database for the weather conditions in past years. The results will help you decide how hot, cold, wet, or windy it might be!

Date:

Astronomy

Feb. 22, 2013 Rise Set
Actual Time 7:02 AM CST 6:04 PM CST
Civil Twilight 6:35 AM CST 6:31 PM CST
Nautical Twilight 6:03 AM CST 7:02 PM CST
Astronomical Twilight 5:32 AM CST 7:34 PM CST
Moon 3:16 PM CST (2/22) 4:47 AM CST (2/22)
Length of Visible Light 11h 56m
Length of Day
11h 01m
Waxing Gibbous, 90% of the Moon is Illuminated
Feb 22
Waxing Gibbous
Feb 25
Full
Mar 4
Last Quarter
Mar 11
New
Mar 19
First Quarter

Hourly Weather History & Observations

Time (CST) Temp. Windchill Dew Point Humidity Pressure Visibility Wind Dir Wind Speed Gust Speed Precip Events Conditions
12:10 AM 23.0 °F 18.4 °F 19.4 °F 86% 29.80 in 3.0 mi North 3.5 mph - 0.00 in Snow Light Snow
12:45 AM 21.2 °F - 19.4 °F 93% 29.80 in 7.0 mi Calm Calm - 0.00 in Snow Light Snow
12:53 AM 21.9 °F - 19.9 °F 92% 29.83 in 7.0 mi Calm Calm - 0.00 in   Overcast
1:53 AM 23.0 °F 15.8 °F 19.9 °F 88% 29.84 in 5.0 mi WNW 5.8 mph - 0.00 in Snow Light Snow
2:53 AM 23.0 °F 13.9 °F 19.0 °F 85% 29.85 in 7.0 mi WNW 8.1 mph - 0.00 in Snow Light Snow
3:53 AM 23.0 °F 15.8 °F 19.0 °F 85% 29.85 in 10.0 mi West 5.8 mph - 0.00 in   Overcast
4:20 AM 21.2 °F 11.7 °F 17.6 °F 86% 29.83 in 10.0 mi West 8.1 mph - N/A   Overcast
4:34 AM 21.2 °F 11.7 °F 17.6 °F 86% 29.84 in 10.0 mi West 8.1 mph - N/A   Overcast
4:43 AM 21.2 °F 11.7 °F 17.6 °F 86% 29.85 in 10.0 mi WSW 8.1 mph - N/A   Overcast
4:53 AM 21.9 °F 11.7 °F 18.0 °F 85% 29.88 in 10.0 mi WSW 9.2 mph - N/A   Overcast
5:06 AM 21.2 °F 11.7 °F 17.6 °F 86% 29.86 in 10.0 mi West 8.1 mph - N/A   Overcast
5:30 AM 21.2 °F 10.9 °F 17.6 °F 86% 29.86 in 10.0 mi West 9.2 mph - N/A   Overcast
5:53 AM 23.0 °F 11.7 °F 18.0 °F 81% 29.89 in 10.0 mi WNW 11.5 mph - N/A   Overcast
6:53 AM 21.9 °F 9.2 °F 17.1 °F 82% 29.91 in 10.0 mi WNW 13.8 mph - N/A   Overcast
7:53 AM 21.0 °F 8.6 °F 16.0 °F 81% 29.96 in 8.0 mi WNW 12.7 mph - N/A   Overcast
8:53 AM 19.9 °F 9.3 °F 15.1 °F 81% 30.00 in 9.0 mi WNW 9.2 mph - N/A   Overcast
9:53 AM 21.0 °F 10.6 °F 15.1 °F 78% 30.02 in 10.0 mi WNW 9.2 mph - N/A   Overcast
10:53 AM 21.9 °F 11.7 °F 16.0 °F 78% 30.05 in 10.0 mi West 9.2 mph - N/A   Overcast
11:16 AM 21.2 °F 10.1 °F 15.8 °F 80% 30.02 in 10.0 mi WNW 10.4 mph - N/A   Mostly Cloudy
11:29 AM 23.0 °F 12.4 °F 15.8 °F 74% 30.02 in 10.0 mi West 10.4 mph - N/A   Scattered Clouds
11:53 AM 23.0 °F 11.1 °F 16.0 °F 74% 30.06 in 10.0 mi WNW 12.7 mph - N/A   Partly Cloudy
12:53 PM 25.0 °F 12.6 °F 16.0 °F 69% 30.06 in 10.0 mi WNW 15.0 mph - N/A   Clear
1:53 PM 25.0 °F 13.1 °F 16.0 °F 69% 30.06 in 10.0 mi West 13.8 mph - N/A   Partly Cloudy
2:53 PM 25.0 °F 13.6 °F 15.1 °F 66% 30.06 in 10.0 mi WNW 12.7 mph - N/A   Clear
3:53 PM 25.0 °F 13.6 °F 15.1 °F 66% 30.06 in 10.0 mi WNW 12.7 mph - N/A   Clear
4:53 PM 24.1 °F 13.7 °F 14.0 °F 65% 30.07 in 10.0 mi WNW 10.4 mph - N/A   Clear
5:53 PM 23.0 °F 13.1 °F 12.9 °F 65% 30.09 in 10.0 mi West 9.2 mph - N/A   Clear
6:53 PM 19.9 °F 13.4 °F 12.0 °F 71% 30.10 in 10.0 mi WSW 4.6 mph - N/A   Clear
7:53 PM 18.0 °F 11.1 °F 12.0 °F 78% 30.11 in 10.0 mi SW 4.6 mph - N/A   Clear
8:53 PM 16.0 °F 5.3 °F 9.0 °F 74% 30.11 in 10.0 mi West 8.1 mph - N/A   Clear
9:53 PM 15.1 °F 5.2 °F 9.0 °F 77% 30.12 in 10.0 mi West 6.9 mph - N/A   Clear
10:53 PM 14.0 °F 2.9 °F 8.1 °F 77% 30.12 in 10.0 mi West 8.1 mph - N/A   Clear
11:53 PM 12.9 °F - 7.0 °F 77% 30.10 in 9.0 mi Calm Calm - N/A   Clear